Newark, NJ

8:02 AM EDT on October 15, 2019 (GMT -0400)
Newark International

Weather History for KEWR - September, 2019

Change the Weather History Date:

Wednesday, September 18, 2019

  Actual Average Record
Temperature  
Mean Temperature 64 °F 67 °F  
Max Temperature 71 °F 76 °F 90 °F (1948)
Min Temperature 56 °F 59 °F 42 °F (1937)
Degree Days  
Heating Degree Days 2 1  
Month to date heating degree days 3 9  
Since 1 July heating degree days 3 10  
Cooling Degree Days 0 4  
Month to date cooling degree days 116 109  
Year to date cooling degree days 1291 1143  
Growing Degree Days 14 (Base 50)    
Moisture  
Dew Point 47 °F    
Average Humidity 58    
Maximum Humidity 72    
Minimum Humidity 44    
Precipitation  
Precipitation 0.00 in 0.14 in 3.16 in (1936)
Month to date precipitation 1.55 2.18  
Year to date precipitation 43.27 33.55  
Snow  
Snow 0.00 in 0.00 in 0.00 in (2002)
Month to date snowfall 0.0 0.0  
Since 1 July snowfall 0.0 0.0  
Snow Depth 0.00 in    
Sea Level Pressure  
Sea Level Pressure 30.23 in    
Wind  
Wind Speed 8 mph ()    
Max Wind Speed 16 mph    
Max Gust Speed 20 mph    
Visibility 10.0 miles    
Events      
T = Trace of Precipitation, MM = Missing Value Source: Averaged Metar Reports

Daily Weather History Graph

Daily Weather History Graph

Search for Another Location

Airport or City:

Astronomy

Sep. 18, 2019 Rise Set
Actual Time 6:40 AM EDT 7:01 PM EDT
Civil Twilight 6:12 AM EDT 7:28 PM EDT
Nautical Twilight 5:40 AM EDT 8:00 PM EDT
Astronomical Twilight 5:07 AM EDT 8:33 PM EDT
Moon 9:32 PM EDT (9/18) 10:41 AM EDT (9/18)
Length of Visible Light 13h 15m
Length of Day
12h 20m
Waning Gibbous, 82% of the Moon is Illuminated
Sep 18
Waning Gibbous
Sep 21
Last Quarter
Sep 28
New
Oct 5
First Quarter
Oct 13
Full

Hourly Weather History & Observations

Time (EDT) Temp. Dew Point Humidity Pressure Visibility Wind Dir Wind Speed Gust Speed Precip Events Conditions
12:51 AM 59.0 °F 46.0 °F 62% 30.15 in 10.0 mi NNE 6.9 mph - N/A   Partly Cloudy
1:51 AM 59.0 °F 45.0 °F 60% 30.17 in 10.0 mi North 6.9 mph - N/A   Partly Cloudy
2:51 AM 57.0 °F 46.9 °F 69% 30.17 in 10.0 mi NNE 6.9 mph - N/A   Partly Cloudy
3:51 AM 57.9 °F 48.9 °F 72% 30.17 in 10.0 mi North 8.1 mph - N/A   Scattered Clouds
4:51 AM 57.0 °F 46.9 °F 69% 30.17 in 10.0 mi North 8.1 mph - N/A   Scattered Clouds
5:22 AM 57.9 °F 48.0 °F 70% 30.18 in 10.0 mi North 8.1 mph - N/A   Mostly Cloudy
5:51 AM 57.9 °F 48.0 °F 70% 30.18 in 10.0 mi North 9.2 mph - N/A   Mostly Cloudy
6:51 AM 57.9 °F 48.0 °F 70% 30.21 in 10.0 mi North 12.7 mph - N/A   Mostly Cloudy
7:51 AM 59.0 °F 48.9 °F 69% 30.23 in 10.0 mi NNE 11.5 mph - N/A   Scattered Clouds
8:51 AM 62.1 °F 50.0 °F 65% 30.24 in 10.0 mi North 15.0 mph - N/A   Scattered Clouds
9:51 AM 64.0 °F 52.0 °F 65% 30.25 in 10.0 mi NNE 12.7 mph - N/A   Scattered Clouds
10:51 AM 66.9 °F 50.0 °F 54% 30.25 in 10.0 mi NE 10.4 mph - N/A   Scattered Clouds
11:51 AM 66.0 °F 48.9 °F 54% 30.25 in 10.0 mi ENE 10.4 mph - N/A   Mostly Cloudy
12:51 PM 66.9 °F 48.9 °F 52% 30.24 in 10.0 mi Variable 4.6 mph - N/A   Mostly Cloudy
1:51 PM 69.1 °F 48.9 °F 49% 30.23 in 10.0 mi NNE 6.9 mph - N/A   Mostly Cloudy
2:51 PM 71.1 °F 48.0 °F 44% 30.23 in 10.0 mi North 11.5 mph - N/A   Scattered Clouds
3:51 PM 70.0 °F 48.0 °F 46% 30.24 in 10.0 mi NE 13.8 mph - N/A   Scattered Clouds
4:51 PM 69.1 °F 46.9 °F 45% 30.24 in 10.0 mi NE 12.7 mph - N/A   Partly Cloudy
5:51 PM 68.0 °F 46.9 °F 47% 30.24 in 10.0 mi NNE 8.1 mph - N/A   Partly Cloudy
6:51 PM 66.9 °F 46.0 °F 47% 30.23 in 10.0 mi East 10.4 mph - N/A   Partly Cloudy
7:51 PM 64.9 °F 45.0 °F 48% 30.26 in 10.0 mi ENE 9.2 mph 16.1 mph N/A   Partly Cloudy
8:51 PM 64.0 °F 45.0 °F 50% 30.28 in 10.0 mi East 9.2 mph - N/A   Partly Cloudy
9:51 PM 63.0 °F 44.1 °F 50% 30.30 in 10.0 mi ENE 8.1 mph - N/A   Scattered Clouds
10:51 PM 57.9 °F 45.0 °F 62% 30.30 in 10.0 mi NNE 6.9 mph - N/A   Scattered Clouds
11:51 PM 57.9 °F 44.1 °F 60% 30.31 in 10.0 mi NNE 6.9 mph - N/A   Partly Cloudy